SWR504 LIMC-EHAM

Flight info

Callsign SWR504
Flight time 1h 17m
Altitude 40000
Route AOSTA DCT ORSUD DCT MOLUS DCT GILIR DCT PENDU DCT IXILU DCT EPL DCT ROUSY DCT KOMOB DCT BUB Y28 HELEN
Aircraft A359/H-SDE2E3GHIJ3J4J5LM1ORWXY/LB1D1

Departure

Time 2026-05-04 08:54
Airport Milan Malpensa International Airport (LIMC)

Arrival

Time 2026-05-04 10:11
Airport Amsterdam Airport Schiphol (EHAM)
Time Latitude Longitude Altitude Speed Heading
2026-05-04 08:19 45.63003 8.71544 759 ft 0 kts 349°
2026-05-04 08:40 45.62992 8.71547 754 ft 4 kts 349°
2026-05-04 08:40 45.62968 8.71554 753 ft 3 kts 350°
2026-05-04 08:40 45.62945 8.71552 753 ft 4 kts 43°
2026-05-04 08:41 45.62934 8.71521 753 ft 4 kts 81°
2026-05-04 08:41 45.62932 8.71498 753 ft 1 kts 81°
2026-05-04 08:41 45.62931 8.71495 753 ft 0 kts 81°
2026-05-04 08:46 45.62987 8.71924 755 ft 11 kts 79°
2026-05-04 08:46 45.62982 8.72032 753 ft 12 kts 126°
2026-05-04 08:46 45.62899 8.72072 754 ft 15 kts 168°
2026-05-04 08:46 45.62787 8.72104 754 ft 18 kts 169°
2026-05-04 08:47 45.62652 8.72141 754 ft 21 kts 169°
2026-05-04 08:47 45.62502 8.72182 754 ft 21 kts 169°
2026-05-04 08:47 45.62353 8.72223 754 ft 20 kts 169°
2026-05-04 08:47 45.62243 8.72257 754 ft 11 kts 154°
2026-05-04 08:48 45.62229 8.72366 754 ft 15 kts 78°
2026-05-04 08:48 45.62253 8.72539 748 ft 16 kts 79°
2026-05-04 08:48 45.62268 8.72652 751 ft 11 kts 79°
2026-05-04 08:48 45.62285 8.72770 754 ft 13 kts 79°
2026-05-04 08:49 45.62304 8.72910 756 ft 13 kts 79°
2026-05-04 08:50 45.61961 8.73118 757 ft 18 kts 168°
2026-05-04 08:50 45.61833 8.73155 759 ft 17 kts 168°
2026-05-04 08:51 45.61732 8.73232 755 ft 18 kts 128°
2026-05-04 08:51 45.61655 8.73386 754 ft 20 kts 124°
2026-05-04 08:51 45.61590 8.73533 753 ft 18 kts 114°
2026-05-04 08:51 45.61592 8.73670 749 ft 13 kts 79°
2026-05-04 08:52 45.61597 8.73708 749 ft 3 kts 79°
2026-05-04 08:52 45.61618 8.73741 747 ft 5 kts 19°
2026-05-04 08:52 45.61662 8.73729 746 ft 10 kts 347°
2026-05-04 08:52 45.61861 8.73673 748 ft 18 kts 347°
2026-05-04 08:53 45.61873 8.73670 749 ft 1 kts 348°
2026-05-04 08:54 45.69346 8.72673 4033 ft 231 kts 349°
2026-05-04 08:55 45.70754 8.71675 4934 ft 233 kts 314°
2026-05-04 08:55 45.71521 8.69634 5724 ft 240 kts 276°
2026-05-04 08:55 45.71504 8.67256 6747 ft 240 kts 264°
2026-05-04 08:55 45.71413 8.64862 7747 ft 244 kts 264°
2026-05-04 08:57 45.65859 8.47438 13570 ft 328 kts 236°
2026-05-04 09:01 45.64827 7.99910 24910 ft 413 kts 285°
2026-05-04 09:01 45.65730 7.95986 25597 ft 417 kts 285°
2026-05-04 09:01 45.66640 7.92026 26268 ft 421 kts 285°
2026-05-04 09:01 45.67556 7.88046 26936 ft 425 kts 285°
2026-05-04 09:02 45.68481 7.84001 27589 ft 429 kts 284°
2026-05-04 09:02 45.69412 7.79925 28269 ft 433 kts 284°
2026-05-04 09:02 45.70347 7.75814 28915 ft 437 kts 284°
2026-05-04 09:02 45.71290 7.71665 29581 ft 440 kts 284°
2026-05-04 09:03 45.72225 7.67547 30291 ft 441 kts 284°
2026-05-04 09:03 45.73176 7.63358 30823 ft 444 kts 284°
2026-05-04 09:03 45.74130 7.59142 31379 ft 446 kts 284°
2026-05-04 09:03 45.75088 7.54894 31862 ft 450 kts 284°
2026-05-04 09:04 45.76048 7.50629 32378 ft 452 kts 284°
2026-05-04 09:04 45.77016 7.46320 32891 ft 455 kts 284°
2026-05-04 09:04 45.78043 7.42034 33356 ft 459 kts 287°
2026-05-04 09:04 45.79432 7.37879 33810 ft 466 kts 296°
2026-05-04 09:05 45.81299 7.34051 34205 ft 474 kts 306°
2026-05-04 09:05 45.83606 7.30708 34533 ft 482 kts 316°
2026-05-04 09:05 45.86243 7.27698 34854 ft 487 kts 319°
2026-05-04 09:05 45.88985 7.24841 35333 ft 487 kts 321°
2026-05-04 09:06 45.91762 7.22062 35862 ft 485 kts 321°
2026-05-04 09:07 46.10954 7.02638 38806 ft 480 kts 320°
2026-05-04 09:08 46.13670 6.99837 39081 ft 480 kts 321°
2026-05-04 09:08 46.16385 6.97034 39378 ft 480 kts 321°
2026-05-04 09:08 46.19084 6.94247 39578 ft 481 kts 321°
2026-05-04 09:08 46.21822 6.91419 39848 ft 481 kts 321°
2026-05-04 09:09 46.24543 6.88604 39997 ft 482 kts 321°
2026-05-04 09:09 46.29954 6.82993 40032 ft 481 kts 321°
2026-05-04 09:10 46.35395 6.77343 40027 ft 482 kts 320°
2026-05-04 09:10 46.40845 6.71663 40037 ft 483 kts 320°
2026-05-04 09:11 46.46574 6.66497 40041 ft 488 kts 329°
2026-05-04 09:11 46.52611 6.62116 40044 ft 489 kts 330°
2026-05-04 09:12 46.58734 6.57821 40039 ft 489 kts 330°
2026-05-04 09:14 46.83166 6.40532 40042 ft 489 kts 330°
2026-05-04 09:14 46.89281 6.36164 40043 ft 490 kts 330°
2026-05-04 09:15 46.95390 6.31791 40040 ft 489 kts 330°
2026-05-04 09:15 47.01518 6.27394 40053 ft 490 kts 330°
2026-05-04 09:17 47.29045 6.07527 40049 ft 492 kts 329°
2026-05-04 09:18 47.35473 6.04111 40045 ft 500 kts 345°
2026-05-04 09:18 47.42452 6.03363 40043 ft 506 kts 356°
2026-05-04 09:19 47.49498 6.03472 40044 ft 507 kts 358°
2026-05-04 09:19 47.56497 6.03701 40044 ft 506 kts 358°
2026-05-04 09:20 47.63536 6.03900 40049 ft 506 kts 358°
2026-05-04 09:20 47.70564 6.04066 40044 ft 506 kts 358°
2026-05-04 09:21 47.77632 6.04236 40046 ft 506 kts 358°
2026-05-04 09:21 47.84668 6.04454 40039 ft 506 kts 358°
2026-05-04 09:22 47.91671 6.04681 40037 ft 507 kts 358°
2026-05-04 09:22 47.98734 6.04905 40035 ft 507 kts 358°
2026-05-04 09:23 48.05789 6.05126 40029 ft 507 kts 358°
2026-05-04 09:23 48.12848 6.05347 40025 ft 507 kts 358°
2026-05-04 09:25 48.41048 6.06336 40022 ft 508 kts 359°
2026-05-04 09:26 48.48075 6.06693 40022 ft 508 kts 359°
2026-05-04 09:26 48.55139 6.07040 40048 ft 509 kts 359°
2026-05-04 09:27 48.62217 6.07378 40045 ft 509 kts 359°
2026-05-04 09:27 48.69310 6.07715 40021 ft 510 kts 359°
2026-05-04 09:28 48.76416 6.08053 40023 ft 510 kts 359°
2026-05-04 09:28 48.83464 6.08389 40017 ft 510 kts 359°
2026-05-04 09:29 48.90565 6.08729 40023 ft 510 kts 359°
2026-05-04 09:29 48.97658 6.09070 40022 ft 510 kts 359°
2026-05-04 09:30 49.04756 6.09412 40023 ft 510 kts 359°
2026-05-04 09:30 49.11859 6.09756 40023 ft 510 kts 359°
2026-05-04 09:31 49.18902 6.10097 40023 ft 510 kts 359°
2026-05-04 09:31 49.26000 6.10442 40027 ft 510 kts 359°
2026-05-04 09:32 49.33100 6.10788 40023 ft 510 kts 359°
2026-05-04 09:34 49.56117 6.02381 40018 ft 490 kts 321°
2026-05-04 09:34 49.58907 5.99355 40019 ft 490 kts 321°
2026-05-04 09:34 49.64424 5.93206 40021 ft 489 kts 320°
2026-05-04 09:35 49.69931 5.87062 40018 ft 488 kts 321°
2026-05-04 09:35 49.75411 5.80982 40019 ft 488 kts 321°
2026-05-04 09:37 49.97410 5.56486 40012 ft 487 kts 321°
2026-05-04 09:38 50.02905 5.50323 40009 ft 487 kts 320°
2026-05-04 09:38 50.08400 5.44140 40012 ft 489 kts 320°
2026-05-04 09:39 50.13927 5.37902 40007 ft 492 kts 320°
2026-05-04 09:39 50.19513 5.31726 40007 ft 493 kts 322°
2026-05-04 09:40 50.25121 5.25702 40002 ft 493 kts 322°
2026-05-04 09:40 50.30765 5.19613 40010 ft 492 kts 322°
2026-05-04 09:42 50.53308 4.94925 39998 ft 497 kts 322°
2026-05-04 09:43 50.58973 4.88675 40001 ft 498 kts 322°
2026-05-04 09:43 50.64639 4.82403 39996 ft 498 kts 322°
2026-05-04 09:44 50.70304 4.76112 39993 ft 498 kts 322°
2026-05-04 09:46 50.91835 4.49429 35859 ft 478 kts 299°
2026-05-04 09:46 50.93678 4.45060 35111 ft 475 kts 297°
2026-05-04 09:46 50.95412 4.40700 34323 ft 474 kts 295°
2026-05-04 09:47 50.97129 4.36237 33375 ft 473 kts 295°
2026-05-04 09:47 50.98823 4.31770 32476 ft 472 kts 294°
2026-05-04 09:49 51.11426 4.01556 28260 ft 485 kts 314°
2026-05-04 09:49 51.14016 3.98297 27530 ft 463 kts 317°
2026-05-04 09:49 51.16569 3.95249 26321 ft 458 kts 318°
2026-05-04 09:51 51.34283 3.86668 21908 ft 458 kts 358°
2026-05-04 09:51 51.37388 3.86618 21324 ft 451 kts 357°
2026-05-04 09:51 51.40517 3.86558 20757 ft 445 kts 357°
2026-05-04 09:51 51.43599 3.86493 20168 ft 439 kts 357°
2026-05-04 09:52 51.46634 3.86426 19607 ft 433 kts 357°
2026-05-04 09:52 51.49620 3.86357 19049 ft 428 kts 358°
2026-05-04 09:52 51.52580 3.86289 18491 ft 422 kts 357°
2026-05-04 09:52 51.55496 3.86220 17905 ft 418 kts 357°
2026-05-04 09:53 51.58409 3.86151 17348 ft 415 kts 357°
2026-05-04 09:53 51.61254 3.86083 16808 ft 412 kts 357°
2026-05-04 09:53 51.64137 3.86014 16275 ft 409 kts 358°
2026-05-04 09:53 51.66924 3.85948 15863 ft 401 kts 358°
2026-05-04 09:54 51.69661 3.85950 15591 ft 387 kts
2026-05-04 09:54 51.72251 3.86809 15280 ft 376 kts 20°
2026-05-04 09:54 51.74454 3.88935 15000 ft 364 kts 38°
2026-05-04 09:54 51.76343 3.91566 14770 ft 353 kts 41°
2026-05-04 09:55 51.78133 3.94173 14548 ft 341 kts 41°
2026-05-04 09:55 51.79871 3.96705 14250 ft 332 kts 41°
2026-05-04 09:55 51.81576 3.99181 13874 ft 328 kts 41°
2026-05-04 09:55 51.83244 4.01597 13424 ft 325 kts 41°
2026-05-04 09:56 51.84922 4.04028 12945 ft 322 kts 41°
2026-05-04 09:56 51.86582 4.06434 12488 ft 319 kts 41°
2026-05-04 09:56 51.88228 4.08821 12037 ft 317 kts 41°
2026-05-04 09:56 51.89863 4.11192 11566 ft 314 kts 41°
2026-05-04 09:57 51.91481 4.13542 11120 ft 311 kts 41°
2026-05-04 09:57 51.93092 4.15873 10672 ft 309 kts 41°
2026-05-04 09:57 51.94683 4.18192 10249 ft 307 kts 41°
2026-05-04 09:57 51.96243 4.20467 9816 ft 304 kts 41°
2026-05-04 09:58 51.97802 4.22744 9484 ft 297 kts 41°
2026-05-04 09:58 51.99333 4.24980 9375 ft 296 kts 41°
2026-05-04 09:58 52.00863 4.27215 9275 ft 296 kts 41°
2026-05-04 10:00 52.11417 4.42690 8196 ft 289 kts 41°
2026-05-04 10:00 52.12907 4.44882 8059 ft 288 kts 41°
2026-05-04 10:02 52.23549 4.56599 7053 ft 279 kts
2026-05-04 10:04 52.37060 4.57808 6018 ft 276 kts
2026-05-04 10:04 52.38965 4.57966 5666 ft 273 kts
2026-05-04 10:04 52.40860 4.58124 5333 ft 272 kts
2026-05-04 10:04 52.42743 4.58279 5000 ft 270 kts
2026-05-04 10:05 52.44619 4.58437 4663 ft 269 kts
2026-05-04 10:05 52.46488 4.58591 4323 ft 269 kts
2026-05-04 10:05 52.48332 4.58757 3997 ft 268 kts
2026-05-04 10:05 52.50182 4.58929 3663 ft 265 kts
2026-05-04 10:06 52.51987 4.59505 3331 ft 266 kts 21°
2026-05-04 10:06 52.53460 4.61283 2989 ft 265 kts 51°
2026-05-04 10:06 52.54208 4.63996 2671 ft 262 kts 81°
2026-05-04 10:08 52.48361 4.72272 2050 ft 181 kts 184°
2026-05-04 10:08 52.47116 4.72163 2014 ft 178 kts 183°
2026-05-04 10:08 52.45885 4.72060 1942 ft 176 kts 182°
2026-05-04 10:08 52.44674 4.71964 1742 ft 172 kts 182°
2026-05-04 10:09 52.43512 4.71861 1493 ft 162 kts 183°
2026-05-04 10:09 52.42421 4.71760 1278 ft 152 kts 183°
2026-05-04 10:09 52.41412 4.71668 1057 ft 141 kts 183°
2026-05-04 10:09 52.40487 4.71581 901 ft 129 kts 184°
2026-05-04 10:10 52.39616 4.71497 752 ft 124 kts 184°
2026-05-04 10:10 52.38751 4.71419 625 ft 125 kts 184°
2026-05-04 10:10 52.37887 4.71340 449 ft 125 kts 184°
2026-05-04 10:10 52.37023 4.71265 258 ft 124 kts 184°
2026-05-04 10:11 52.36165 4.71193 87 ft 124 kts 184°
2026-05-04 10:11 52.35327 4.71112 4 ft 115 kts 184°
2026-05-04 10:11 52.34693 4.71057 5 ft 67 kts 183°
2026-05-04 10:11 52.34288 4.71023 3 ft 40 kts 183°
2026-05-04 10:12 52.34031 4.71001 4 ft 27 kts 182°
2026-05-04 10:12 52.33851 4.71033 5 ft 27 kts 165°
2026-05-04 10:12 52.33703 4.71137 5 ft 21 kts 153°
2026-05-04 10:12 52.33580 4.71228 5 ft 20 kts 166°
2026-05-04 10:13 52.33446 4.71229 5 ft 16 kts 182°
2026-05-04 10:13 52.33338 4.71221 5 ft 13 kts 182°
2026-05-04 10:13 52.33241 4.71239 5 ft 16 kts 152°
2026-05-04 10:13 52.33156 4.71380 5 ft 19 kts 132°
2026-05-04 10:14 52.33059 4.71558 5 ft 22 kts 130°
2026-05-04 10:14 52.32979 4.71709 5 ft 19 kts 131°
2026-05-04 10:16 52.32526 4.72744 5 ft 26 kts 139°
2026-05-04 10:16 52.32380 4.72947 5 ft 26 kts 139°
2026-05-04 10:16 52.32270 4.73101 5 ft 22 kts 139°
2026-05-04 10:16 52.32147 4.73276 5 ft 20 kts 139°
2026-05-04 10:17 52.32070 4.73409 5 ft 18 kts 116°
2026-05-04 10:17 52.32052 4.73626 6 ft 21 kts 94°
2026-05-04 10:19 52.31458 4.74145 5 ft 13 kts 183°
2026-05-04 10:19 52.31397 4.74169 5 ft 10 kts 134°
2026-05-04 10:19 52.31389 4.74291 5 ft 13 kts 87°
2026-05-04 10:19 52.31394 4.74466 5 ft 18 kts 87°
2026-05-04 10:20 52.31401 4.74685 5 ft 16 kts 86°
2026-05-04 10:20 52.31407 4.74875 5 ft 19 kts 87°
2026-05-04 10:20 52.35365 4.71116 3 ft 5 kts 184°